SOYUZ-MS 03

Last updated on Sat Jun 03 2017 00:15:08 GMT+0000 (Coordinated Universal Time)

1 41864U 16070A 17152.43516284 .00001950 00000-0 36913-4 0 9997 2 41864 51.6418 116.8382 0004870 218.1062 287.6793 15.53966175 30427
UTC large
Height (km)
Speed (km/s)
/
Latitude / Longitude
Inclination (degrees)
Orbital Period (minutes)
Azimuth
Elevation
Range (km)
Doppler Factor

Next 0 passes for location: London (51.5072 / 0.1276)

Sorry there are no passes over London.